Theta_e
333 322 312 309 299 297 293 298 304 305 309 322 326 322 319 323 318 311 342 350 354 355 356 358 362 362 362 362 361 361 360 361 361 361 361 361 361 362 362 361 361 360 357 354 353 353 354 354 354
326 316 308 302 295 290 293 300 302 305 309 311 319 326 326 325 339 340 342 353 354 356 356 358 362 361 362 361 360 360 360 360 360 360 361 361 361 361 361 361 360 358 357 353 352 354 354 354 353
316 312 302 297 291 291 294 300 302 306 309 307 311 329 329 330 341 341 349 353 355 355 357 357 361 361 361 360 360 359 359 359 359 360 361 361 361 360 360 361 360 358 356 352 352 353 355 355 354
309 304 301 294 292 295 299 302 304 304 307 310 315 324 329 341 342 347 354 354 353 354 356 360 361 361 361 360 360 359 359 359 359 359 360 360 359 359 359 360 359 357 354 352 353 355 355 355 354
304 300 293 290 293 297 303 305 304 303 305 313 326 323 325 343 350 353 353 353 351 352 355 358 361 361 360 360 359 359 358 359 359 359 359 359 359 359 358 358 357 356 355 353 352 353 354 355 354
297 297 289 289 294 299 306 308 304 304 316 323 324 323 325 346 349 351 353 350 352 352 356 356 360 360 360 360 359 358 357 358 359 359 359 359 359 359 358 358 356 355 354 354 353 354 354 353 353
295 293 290 292 296 298 305 305 302 303 307 314 325 320 326 340 346 350 350 350 351 353 354 354 356 358 360 359 358 358 357 357 358 358 358 359 358 358 358 358 357 355 354 354 353 353 352 352 351
297 295 290 294 297 297 308 304 305 301 305 319 323 318 323 336 346 345 347 348 348 350 351 351 353 354 355 355 359 358 357 357 357 357 357 358 357 358 358 355 355 355 354 353 353 352 350 348 348
299 290 289 293 298 299 305 304 308 307 305 311 312 316 321 342 343 340 344 345 346 348 347 348 348 350 351 352 356 358 358 358 357 357 357 354 352 353 354 354 353 356 355 353 352 350 348 348 346
293 288 291 298 302 300 304 307 305 305 305 303 308 312 335 341 339 337 340 340 343 344 346 349 349 349 349 352 351 352 354 354 354 353 353 351 349 349 351 352 354 354 355 354 352 351 350 348 338
290 289 298 302 305 306 307 308 310 308 301 306 303 306 319 327 335 336 338 340 342 344 346 349 349 350 349 349 350 351 351 352 351 351 351 349 348 349 350 348 348 350 350 349 347 345 344 340 337
287 294 301 303 307 309 307 307 308 308 309 311 306 305 307 320 327 334 336 339 340 343 345 347 349 349 349 350 351 350 350 352 351 352 349 347 346 346 347 347 347 346 346 345 344 341 340 338 337
289 293 297 302 306 307 310 308 307 309 312 312 306 306 304 306 316 323 338 340 342 342 344 344 348 348 349 347 351 349 348 350 349 350 352 350 345 344 345 345 345 345 345 344 342 341 339 336 335
293 294 295 298 299 304 303 305 308 309 312 311 310 306 303 304 305 305 317 333 336 343 344 345 345 347 347 346 348 349 349 349 348 349 350 349 348 345 344 344 344 343 343 344 343 340 339 336 334
294 288 293 297 301 301 305 300 301 306 310 307 306 306 304 303 304 305 305 308 317 332 340 343 343 345 344 345 346 347 347 349 350 349 350 350 349 346 345 343 342 344 344 342 341 340 337 334 333
290 289 283 291 300 300 301 292 301 306 307 306 310 309 304 304 304 305 306 309 314 318 326 332 345 341 340 341 345 345 346 347 347 348 349 349 350 349 346 344 343 345 344 342 340 339 336 335 334
285 282 284 289 296 298 297 294 301 304 306 305 307 308 307 301 302 304 306 312 315 321 330 334 338 339 339 340 343 343 344 343 343 345 345 347 349 350 349 348 347 346 342 340 340 340 338 338 335
283 284 286 289 292 297 295 295 300 302 302 302 304 305 304 302 302 304 305 312 315 322 328 336 337 338 338 341 341 344 342 341 341 341 342 343 344 346 349 349 348 345 341 339 338 338 338 336 337
289 288 288 291 296 294 293 294 296 299 297 297 299 300 301 301 304 304 307 309 314 317 323 329 329 331 332 327 325 329 336 339 343 345 346 346 343 343 342 342 343 343 340 342 338 337 335 336 335
291 288 288 292 296 294 293 293 296 298 297 297 299 300 300 300 302 305 308 311 314 316 320 320 323 321 319 319 318 319 324 326 327 331 332 337 341 342 341 340 339 340 340 340 340 339 338 337 334
290 288 288 290 293 294 292 290 293 298 298 299 298 299 300 300 301 307 310 310 313 314 316 316 316 317 318 321 318 316 315 316 317 319 322 326 331 334 337 338 339 339 338 338 339 339 337 335 338
287 293 293 292 289 285 292 283 289 293 295 298 298 298 300 301 301 302 309 310 311 314 314 315 315 315 317 318 315 313 311 311 313 315 318 321 324 326 329 330 330 333 336 336 337 340 339 337 330
291 295 293 292 287 286 287 284 288 292 293 296 297 300 301 303 303 302 306 312 310 310 310 311 312 315 316 315 314 313 313 313 315 316 317 318 321 324 326 327 327 326 326 332 336 337 338 338 334
296 290 288 286 284 280 285 285 285 289 293 297 299 301 301 301 302 302 305 307 305 306 308 312 314 314 314 315 315 314 314 313 313 314 315 317 319 322 325 326 324 325 325 325 327 330 334 335 335
290 285 279 278 278 279 286 285 286 294 299 299 299 299 300 300 300 301 302 303 304 306 309 313 312 311 312 313 316 314 314 312 313 312 313 315 318 320 321 321 322 323 324 325 326 327 329 332 333
288 285 280 277 276 279 288 283 289 299 299 298 298 298 299 298 298 300 300 301 301 301 301 302 304 305 305 308 310 310 311 311 312 313 314 316 318 320 321 321 323 324 323 324 326 326 327 330 331
290 286 288 282 282 280 283 287 295 298 298 299 299 299 297 297 297 297 298 298 299 300 300 300 301 303 305 305 306 308 310 311 311 313 315 317 319 320 320 321 322 321 321 321 321 319 321 324 325
293 294 286 283 278 277 281 284 285 293 294 296 296 296 296 297 298 299 300 301 301 301 302 303 303 303 304 304 304 306 307 309 311 312 313 314 317 318 320 320 320 318 318 319 319 317 318 320 322
291 288 288 287 283 278 278 282 292 293 294 293 294 295 295 296 297 298 299 300 300 301 301 302 302 303 303 304 304 304 304 305 306 308 311 313 316 317 317 318 318 317 317 317 316 315 317 318 318
292 290 289 283 282 281 279 281 294 292 293 293 294 296 296 297 296 297 298 298 299 299 300 301 302 301 302 303 303 302 303 303 303 304 306 308 310 313 315 316 316 316 316 316 314 314 315 315 315
Wind_Speed
7 7 1 4 3 5 3 7 3 4 7 1 4 3 3 5 4 5 1 3 12 15 11 13 15 16 18 19 18 17 15 15 16 17 18 17 17 16 15 14 13 13 12 12 12 12 12 12 13
4 5 4 2 4 2 5 5 6 3 5 10 2 3 4 1 3 5 6 6 13 14 10 10 16 15 16 19 19 19 18 16 15 15 16 16 15 15 14 13 12 13 12 12 12 12 12 12 12
4 3 3 3 3 6 5 5 1 5 11 5 5 3 2 1 2 8 6 13 13 12 12 11 16 16 15 18 19 19 18 18 17 16 15 15 14 13 12 11 11 12 11 11 11 11 10 10 10
1 4 4 4 6 6 4 5 5 7 8 5 6 3 2 1 7 7 11 15 13 13 9 14 16 16 15 16 17 18 17 17 17 16 15 14 13 11 10 9 9 10 11 11 11 10 9 9 9
3 3 1 3 5 5 5 5 6 7 5 5 5 5 1 4 6 14 15 13 14 13 9 11 16 16 16 15 16 17 17 16 16 16 15 14 12 11 10 9 9 9 9 10 10 9 8 7 8
3 3 2 5 5 4 4 4 4 4 3 1 4 6 1 4 6 9 12 13 11 12 10 10 16 17 16 16 16 16 17 16 15 15 14 13 12 12 10 10 9 8 8 8 9 8 8 8 8
7 5 6 5 5 3 4 2 1 6 6 2 3 4 1 2 3 7 8 8 10 9 10 8 9 14 17 16 15 15 15 15 15 14 14 14 14 13 12 11 11 11 10 9 9 8 8 8 8
5 5 5 6 6 4 4 1 1 2 5 3 4 3 5 5 10 8 7 6 5 6 6 7 8 9 10 10 16 16 16 15 14 14 14 13 12 11 10 9 8 9 9 9 10 10 10 10 10
4 3 8 9 7 3 3 3 4 3 5 3 4 2 4 13 14 9 7 4 3 5 5 5 5 4 5 5 9 12 15 14 14 12 12 9 4 5 6 6 8 8 8 8 8 8 9 9 10
5 5 9 8 5 5 5 5 7 6 9 7 4 5 9 12 12 12 11 10 9 10 8 7 6 6 6 5 5 5 6 5 6 6 6 4 4 3 3 4 6 7 7 7 8 8 8 9 3
3 4 6 8 5 7 5 11 4 4 3 5 7 1 5 4 5 7 9 10 16 11 9 9 6 5 6 5 4 3 2 3 3 4 5 4 4 4 4 3 3 3 5 3 3 4 3 2 2
2 6 9 6 3 6 5 11 18 5 7 8 9 4 3 11 9 8 8 8 8 8 8 7 8 8 7 4 5 5 4 4 4 4 5 4 3 4 4 4 4 4 4 6 5 3 4 4 4
5 4 7 4 8 5 8 11 17 28 12 10 9 11 2 7 7 7 10 7 7 8 8 9 10 9 8 6 6 5 5 5 4 5 5 5 4 5 4 4 4 4 3 4 4 4 5 5 5
6 9 7 6 6 3 3 12 12 33 6 11 10 13 12 9 8 3 7 10 10 12 10 9 12 11 9 8 7 6 5 5 4 4 5 9 5 3 3 2 3 3 4 4 6 6 6 6 5
7 3 7 5 7 4 6 17 18 35 18 21 11 12 11 11 7 10 8 10 12 10 7 10 9 10 10 8 6 6 5 5 6 7 8 6 6 5 4 4 5 5 4 6 5 5 4 5 5
7 5 4 5 9 4 15 13 29 29 5 24 24 17 10 12 9 6 8 8 7 6 9 8 9 10 9 9 7 6 6 6 6 6 6 9 9 9 6 5 6 6 5 5 5 6 6 7 6
1 6 6 6 12 8 16 10 16 17 8 27 24 23 15 11 9 10 9 9 8 8 8 8 9 12 12 10 8 7 8 6 6 6 6 7 8 9 8 7 7 7 6 6 6 6 7 7 6
5 6 6 13 11 21 21 20 16 22 21 25 24 26 20 12 12 11 6 8 6 5 6 7 7 9 8 6 5 5 6 5 4 5 5 5 3 4 5 4 5 4 4 5 5 9 6 7 7
5 4 4 5 5 6 13 17 18 16 6 10 14 16 14 13 10 5 6 7 7 5 8 10 10 8 9 5 4 3 3 2 2 3 5 6 5 5 5 4 5 4 5 8 7 7 8 7 3
4 3 4 5 4 6 8 12 9 7 7 9 17 17 13 7 5 6 8 8 10 10 9 7 7 9 7 4 3 3 4 2 3 3 3 4 4 3 3 4 3 4 4 6 7 8 7 6 5
5 5 5 5 3 1 4 6 5 1 5 6 8 6 5 7 3 5 6 10 10 11 10 9 7 7 4 5 5 4 4 4 2 0 2 3 4 3 2 3 3 3 3 5 6 7 9 8 4
5 9 6 4 5 4 1 3 5 5 7 4 4 1 5 6 5 6 9 9 10 10 7 8 8 8 6 7 5 5 4 4 4 4 3 3 2 4 5 5 3 4 3 5 6 6 8 8 9
10 7 9 5 6 5 1 5 7 4 5 3 6 5 7 7 7 6 10 11 3 6 4 4 3 5 5 5 5 5 4 3 3 2 3 3 4 6 5 4 3 2 3 4 6 8 8 7 8
1 5 7 5 5 2 5 7 6 4 2 5 4 8 7 6 7 5 2 7 7 7 6 5 5 4 6 6 7 9 9 7 4 4 4 4 4 4 5 5 5 4 4 4 5 6 8 8 9
5 6 4 4 3 5 2 3 7 3 1 4 4 6 6 5 3 5 7 7 7 8 7 8 9 8 7 8 8 9 9 8 9 7 5 5 4 4 7 6 5 4 5 5 4 5 7 8 7
2 6 7 6 4 3 4 3 3 5 6 3 6 5 8 9 8 8 8 8 8 8 8 8 7 7 7 6 6 6 7 5 5 6 6 7 7 6 6 6 5 6 5 5 5 4 5 6 7
3 3 3 8 4 4 2 3 5 4 6 9 9 10 10 10 10 10 11 10 10 10 9 7 7 7 7 7 5 5 4 4 5 7 5 6 5 5 7 7 8 7 7 7 6 5 7 5 7
4 5 4 4 5 3 3 3 5 4 5 5 8 8 8 8 9 9 10 9 7 7 6 8 8 7 5 6 6 5 5 5 4 4 5 5 6 5 7 8 9 8 8 8 7 6 7 7 7
2 3 6 5 4 6 3 6 4 3 1 6 6 7 7 7 7 7 7 7 6 6 6 6 6 6 6 5 4 5 5 5 5 4 4 5 5 6 7 9 9 8 9 8 7 9 9 9 9
2 3 5 6 4 2 4 6 1 6 6 5 6 6 5 6 6 6 6 7 6 6 6 5 5 5 5 5 5 6 6 6 6 6 6 6 6 6 8 9 10 11 11 10 9 10 9 10 10
Wind_Direction
308 307 50 16 52 63 255 248 251 291 346 298 295 254 206 146 165 220 344 123 129 139 149 154 149 147 141 138 132 127 120 119 120 124 128 132 135 139 143 143 143 148 149 146 147 146 143 140 137
317 339 42 49 105 103 265 259 234 257 279 302 275 295 58 99 106 117 117 137 143 142 145 149 147 147 146 138 136 134 131 127 125 128 133 136 138 142 146 147 149 154 156 155 155 155 153 151 149
304 86 83 121 142 182 215 233 77 274 271 259 303 82 59 100 63 166 139 138 134 144 149 156 150 146 150 142 140 137 135 135 136 138 140 141 143 146 149 149 153 160 159 160 162 162 160 160 156
198 20 15 114 229 244 220 276 245 292 288 225 199 72 28 2 160 147 138 140 138 149 151 157 153 146 151 146 142 139 138 139 139 140 141 144 146 144 144 149 159 166 167 170 171 171 171 168 165
53 68 238 188 241 257 236 275 309 301 266 242 165 153 121 360 85 134 143 149 147 153 154 154 158 150 152 154 149 146 145 146 144 145 148 149 147 148 154 161 168 172 174 179 182 182 182 185 183
86 103 132 214 217 240 265 248 268 277 296 313 110 115 229 127 132 151 151 152 154 150 158 162 165 158 159 159 158 155 153 152 151 152 155 155 157 162 168 172 177 181 185 191 195 196 198 203 205
151 123 209 207 209 209 225 211 324 306 275 283 149 109 326 175 152 145 143 139 146 155 158 164 170 167 165 165 161 161 160 159 160 162 164 166 171 176 181 185 184 186 191 197 205 212 221 225 228
150 132 202 219 178 232 207 322 71 30 297 317 127 216 193 194 128 115 100 98 127 149 165 179 178 172 167 169 168 168 168 168 168 169 171 175 181 187 190 195 204 209 208 212 215 212 214 222 230
139 142 207 194 161 201 78 9 340 271 338 323 337 212 288 127 123 112 109 105 127 173 178 182 182 170 153 153 176 174 175 176 175 175 177 171 169 182 198 208 221 229 229 231 238 249 252 254 251
159 190 214 188 164 117 28 6 330 11 343 4 344 47 69 131 147 150 164 179 185 198 197 185 177 168 149 166 165 163 176 174 172 170 169 163 153 162 182 228 248 260 263 260 255 252 259 270 303
219 220 221 216 150 95 62 337 310 353 330 345 292 87 130 129 172 172 184 191 197 199 195 188 163 153 159 169 150 149 144 153 155 159 157 151 156 174 173 175 196 210 240 253 283 293 277 286 327
321 243 226 239 96 80 38 343 312 278 261 271 285 281 238 171 195 198 197 194 184 185 194 168 166 164 172 159 167 157 161 165 176 174 161 160 174 185 202 209 217 209 202 204 207 212 258 253 219
194 295 275 108 82 92 40 311 275 277 290 280 311 324 216 269 228 195 204 188 179 201 188 182 171 181 182 172 170 157 157 168 165 168 185 196 208 209 198 211 205 209 206 227 227 226 233 232 232
205 208 272 177 104 136 124 278 272 278 297 304 307 291 286 183 230 249 186 205 194 209 201 177 186 184 177 183 174 170 159 152 159 175 195 217 209 214 215 242 243 242 226 225 229 223 228 239 240
207 175 251 207 161 153 110 292 254 264 289 284 291 276 264 264 179 212 215 196 198 211 183 189 180 174 175 178 159 158 155 166 185 199 205 198 198 198 192 211 240 234 227 230 234 248 248 249 242
138 133 229 222 156 191 135 235 257 259 267 307 286 265 244 264 246 228 216 221 213 187 184 177 174 167 162 167 164 164 172 181 191 192 189 200 201 201 198 214 229 229 221 220 230 229 243 251 243
328 196 187 283 186 182 197 228 254 259 142 255 267 277 259 219 265 260 197 206 215 197 165 169 165 171 175 174 168 168 178 190 184 186 194 201 199 199 205 213 229 214 217 209 226 237 228 248 242
213 219 184 208 204 192 207 237 230 241 234 224 229 242 254 254 251 235 194 194 185 190 173 155 164 169 159 156 157 174 189 207 185 199 206 215 199 214 219 234 237 215 222 230 219 235 233 237 249
203 212 188 205 164 127 198 210 220 235 210 226 227 234 241 239 256 208 152 165 166 185 174 179 167 175 156 154 144 128 178 158 138 157 189 206 203 210 208 223 231 227 229 242 214 228 237 259 235
200 218 246 275 222 159 182 218 217 191 231 214 224 224 221 236 207 185 156 163 193 189 192 167 172 161 162 136 124 130 144 142 137 145 158 180 185 194 192 212 227 229 241 249 245 245 258 250 174
215 185 211 205 29 276 97 335 311 212 240 241 232 203 193 237 226 191 192 195 192 197 189 171 152 141 120 115 107 75 64 55 70 217 201 193 161 179 207 235 236 251 240 262 255 244 243 262 236
229 209 211 185 100 223 116 237 291 276 292 285 22 283 246 233 236 200 196 195 198 205 166 157 154 148 141 148 129 146 153 159 205 179 184 169 196 200 191 190 198 235 245 249 258 255 249 250 266
226 194 201 193 158 128 271 98 264 311 273 316 319 327 323 322 314 253 212 210 130 103 80 47 98 128 139 148 153 153 172 195 179 173 186 219 217 216 211 194 199 225 231 248 246 262 259 245 254
204 93 45 68 117 156 203 144 266 202 249 301 325 340 340 331 315 313 134 126 104 87 91 112 145 185 189 186 193 190 190 192 189 208 216 220 227 222 216 209 196 218 240 233 249 244 251 258 254
79 67 11 4 6 215 316 120 210 255 272 235 287 354 358 10 12 86 97 96 99 131 164 175 185 201 203 207 211 210 211 196 205 208 204 205 221 219 216 196 200 205 225 249 246 258 256 252 250
60 137 151 188 177 234 2 263 283 345 331 52 75 70 45 34 34 36 45 50 46 36 35 27 16 352 12 7 345 347 345 324 286 241 213 220 211 207 207 211 208 212 216 225 238 244 254 264 262
195 69 159 100 14 69 255 296 354 351 20 42 33 41 34 36 30 28 35 41 41 42 30 18 9 16 16 9 4 8 353 324 278 276 263 287 265 217 213 217 216 219 217 220 224 244 255 234 257
110 154 67 18 133 201 290 274 208 194 42 28 25 32 39 48 52 50 50 52 52 53 49 47 52 53 31 28 27 25 10 354 328 310 314 291 283 283 286 237 218 227 227 223 215 234 247 246 255
44 84 54 105 112 153 159 255 289 113 98 97 56 53 65 55 42 36 35 38 44 46 39 33 26 6 355 346 338 337 317 309 306 319 309 291 285 277 261 262 276 262 244 233 223 231 234 232 245
87 167 138 129 198 108 140 267 330 103 100 97 101 88 71 76 50 35 28 13 18 13 2 356 349 340 326 312 318 307 295 292 287 275 265 263 257 255 250 252 252 254 258 260 248 248 241 234 244